星链-35246(STARLINK-35246)

导读

STARLINK-35246是美国SpaceX星链星座的卫星,于2025年9月19日发射升空,作为星链互联网星座组网的组成部分,承担着向全球提供低延迟、高速宽带互联网服务的任务,依托近地轨道部署优势,可为偏远地区、海洋船舶等场景提供网络覆盖,进一步完善了星链星座的全球服务能力。

Basic Information
目录编号:
65660
目录名称:
STARLINK-35246
国际标识:
2025-211J
轨道中心:
EARTH
卫星名称:
星链-35246
卫星全名:
星链-35246(STARLINK-35246)
卫星状态:
在轨 (已飞行350 天)
发射日期:
2025-09-19 UTC
国别 :
美国 (US)
星等 :
--
Orbit Information
数据来源 国际轨道数据
星历时间: 2026-09-03T23:55:30+0800
20小时前
查看轨道信息
半长轴: 6843.74km
偏心率: 0.0001174
轨道倾角: 97.283°
近地点辐角 100.218°
升交点赤经 287.146°
平近点角 259.920°
近地点: 464.799km
远地点: 466.407km
周期: 93.907分钟
每日圈数: 15.334249
Detailed Information
固有亮度:
5
最大亮度:
2.5
卫星平台:
Starlink V1.0
覆盖范围:
全球
运营商:
太空探索技术公司
运营商所在国:
美国
制造商(研发单位):
太空探索技术公司
制造商所在国:
美国
使用方式:
暂无
Satellite Introduction
Starlink 计划是 SpaceX 推出的全球卫星互联网项目,通过发射低轨道卫星,为全球尤其是偏远地区提供高速、低延迟的互联网服务。自 2019 年起,Starlink 已部署数千颗卫星,旨在缩小全球数字鸿沟,推动互联网普及。该项目还为军事、航空等行业提供通信支持,带来广泛经济效益。
2D Orbit Map
3D Orbit Map
Orbit Altitude Analysis Chart
Orbit Inclination Analysis Chart
Orbit Comprehensive Analysis Chart
View Comprehensive Chart
Conjunction Data List
Event ID Objects TCA Miss Dist (km) Collision Risk Probability Collision Risk Index (CRI) Action
CDM_260906-175706-566006-810321
2026-09-06T
17:57:00+0000
1.385 km
极远距离
6.623521E-6 低风险 0.51
CDM_260906-193006-566006-810321
2026-09-06T
19:30:58+0000
1.712 km
极远距离
3.390013E-6 低风险 0.46
CDM_260906-084104-811206-566021
2026-09-06T
08:41:23+0000
2.726 km
极远距离
1.409046E-6 低风险 0.38
CDM_260904-195605-315306-566021
2026-09-04T
19:56:36+0000
2.989 km
极远距离
1.317867E-6 低风险 0.37
CDM_260829-181404-603506-566021
2026-08-29T
18:14:19+0000
2.941 km
极远距离
1.278152E-6 低风险 0.37
CDM_260904-105404-837406-566021
2026-09-04T
10:54:32+0000
2.701 km
极远距离
1.103974E-6 低风险 0.36